Regional Weather Roundup
Issued by NWS

Home | Current Version | Previous Version | Graphics & Text | Print | Product List | Glossary On
Versions: 1 2 3 4 5 6 7 8 9 10 11 12 13 14 15 16 17 18 19 20 21 22 23 24 25 26 27 28 29 30 31 32 33 34 35 36 37 38 39 40 41 42 43 44 45 46 47 48 49 50
000
ASUS45 KTFX 280719
RWRMT
MONTANA HOURLY WEATHER ROUNDUP
NATIONAL WEATHER SERVICE GREAT FALLS MT
1219 AM MST WED JAN 28 2015

NOTE: "FAIR" INDICATES FEW OR NO CLOUDS BELOW 12000 FEET WITH NO
SIGNIFICANT WEATHER AND/OR OBSTRUCTIONS TO VISIBILITY.

* THESE STATIONS ARE NOT UNDER NWS QUALITY CONTROL. THEY DO NOT
   REPORT WEATHER SUCH AS PRECIPITATION OR FOG.

MTZ001>007-043-280800-
WEST OF THE DIVIDE
CITY           SKY/WX    TMP DP  RH WIND       PRES   REMARKS
KALISPELL      FOG       18  16  92 CALM      30.03R
MISSOULA       FOG       28  27  96 CALM      30.08R
BUTTE          CLOUDY    32  28  85 CALM      30.05R
MULLAN PASS    CLEAR     30  27  89 VRB5G18   30.05R WCI  25
* ANACONDA     CLOUDY    39  30  70 N/A        N/A
* ESSEX        N/A       31  26  82 N1         N/A
* EUREKA APT   PTCLDY    37  27  67 E5        30.02R WCI  33
* HAMILTON APT CLOUDY    36  32  85 SE3       30.07R
* LIBBY APT    PTCLDY    27  27 100 CALM      30.08R
* LINCOLN      N/A       37  28  70 S3         N/A
* LOOKOUT PASS N/A       38  28  67 E3G12      N/A
* POLSON       N/A       38  30  73 SE3        N/A
* RONAN APT    PTCLDY    32  32 100 N/A        N/A
* SEELEY LAKE  N/A       23  21  92 NE1        N/A
* THOMP F APT  CLEAR     33  32  96 N/A        N/A
$$

MTZ008-052>055-280800-
SOUTHWEST MONTANA
CITY           SKY/WX    TMP DP  RH WIND       PRES   REMARKS
BOZEMAN        CLOUDY    36  30  79 S6        30.01R WCI  31
DILLON         CLOUDY    39  34  82 SW10      30.04R WCI  32
* W YELLOWSTON CLOUDY    32  31  96 N/A        N/A
* THREE FORKS  CLOUDY    48  46  93 SW16G21    N/A
* BOULDER HILL N/A       41  22  47 S7         N/A
* MONIDA PASS  N/A       31  31 100 SE9        N/A   WCI  23
* RAYNOLDS PAS N/A       32  17  54 S8         N/A   WCI  25
* WHITEHALL    N/A       45  30  56 SW5G14     N/A
* WISE RIVER   N/A       31  26  82 NW3        N/A
$$

MTZ009>010-012-014-046-048-049-054-280800-
EAST SLOPES AND CENTRAL MONTANA
CITY           SKY/WX    TMP DP  RH WIND       PRES   REMARKS
CUT BANK       CLOUDY    45  23  42 W23       29.87R
GREAT FALLS    CLOUDY    48  28  46 SW14      29.90R
HELENA         CLOUDY    37  32  82 SW3       30.00R
MALMSTROM AFB  CLOUDY    48  28  46 W10       29.90R
* CONRAD       CLOUDY    45  28  51 SW9        N/A
* DEARBORN     N/A       53  28  38 S10G15     N/A
* EAST GLACIER N/A       39  21  48 W9         N/A   WCI  33
* MONARCH      N/A       43  18  37 SW11G16    N/A
* PENDROY      N/A       44  21  40 W9         N/A
* ROGERS PASS  N/A       42  25  51 SE10G19    N/A
* SWEET GRASS  N/A       44  22  42 W20G28     N/A
* WHITE SULPH  N/A       42  32  68 SE7        N/A
$$

MTZ011-013-016-021-035-040-045-047-050-051-280800-
NORTH CENTRAL MONTANA
CITY           SKY/WX    TMP DP  RH WIND       PRES   REMARKS
HAVRE          MOCLDY    45  28  51 SW18      29.81S
LEWISTOWN      CLOUDY    41  30  65 SW12      29.89R
* N BAR RANCH  CLEAR     48  21  34 NW9       29.86S
* CHINOOK      MOCLDY    43  28  56 SW10      29.79S
* MALTA APT    CLOUDY    34  28  79 N/A        N/A
* CHESTER      N/A       44  28  53 W13G19     N/A
* DENTON       N/A       43  24  47 SW7        N/A
* GEYSER       N/A       50  22  33 SW14G22    N/A
* JUDITH GAP   N/A       43  24  47 SW6        N/A
* LOMA         N/A       45  31  58 SW6        N/A
$$

MTZ017>020-022>027-061-062-280800-
NORTHEAST MONTANA
CITY           SKY/WX    TMP DP  RH WIND       PRES   REMARKS
GLASGOW        CLOUDY    34  30  85 NW5       29.76S WCI  29
GLENDIVE       PTCLDY    36  28  73 S3        29.77F
JORDAN         PTCLDY    34  30  85 W7        29.79R WCI  28
SIDNEY         CLOUDY    32  30  92 CALM      29.78S
WOLF POINT     CLOUDY    32  28  85 CALM      29.76F
* BEAVER HILL  N/A       40  31  70 S1G7       N/A
* CIRCLE       N/A       40  34  79 N/A        N/A
* LINDSAY DVD  N/A       48  31  52 W7         N/A
* NAVAJO       N/A       37  30  76 SW6        N/A   WCI  32
* PLENTYWOOD A CLOUDY    36  32  85 CALM      29.75F
* POPLAR APT   CLOUDY    34  30  85 N/A       29.76S
* SACO         N/A       32  31  96 N/A        N/A
$$

MTZ028>042-056>058-280800-
SOUTHCENTRAL AND SOUTHEAST MONTANA
CITY           SKY/WX    TMP DP  RH WIND       PRES   REMARKS
BAKER          PTCLDY    30  27  89 CALM      29.79S
BILLINGS       CLOUDY    48  28  46 SW17      29.88R
LIVINGSTON     CLOUDY    50  34  54 SW30G41   29.97R
MILES CITY     CLEAR     34  30  85 NW7       29.80S WCI  28
* BIG TIMBER A CLOUDY    50  32  50 SW26G31   29.93S
* FORSYTH APT  CLEAR     45  32  60 CALM      29.81S
* LAUREL APT   CLOUDY    43  27  53 N/A        N/A
* ROUNDUP APT  MOCLDY    48  28  46 S6         N/A
* ALZADA       N/A       40  30  68 W5         N/A   WCI  36
* HYSHAM       N/A       47  26  44 W6         N/A
* REED POINT   N/A       51  28  41 SW8G13     N/A
$$

REGIONAL REPORTS...DAKOTAS
CITY           SKY/WX    TMP DP  RH WIND       PRES   REMARKS
WILLISTON      CLOUDY    32  28  85 S3        29.74F
DICKINSON      CLEAR     39  30  70 NW5       29.74F WCI  35
BEACH          CLEAR     37  32  82 W3        29.78S
CROSBY         FOG       30  30 100 CALM      29.77S VSB M1/4
TIOGA          CLEAR     30  30 100 CALM      29.77F
WATFORD CITY   CLEAR     32  32 100 CALM      29.74S
BISMARCK       CLOUDY    28  28 100 CALM      29.78F
GRAND FORKS    FOG       34  30  85 S15       29.88F WCI  24
FARGO          CLOUDY    36  32  85 S23G30    29.89F WCI  24
BUFFALO SD     CLEAR     45  30  56 W8        29.73S
RAPID CITY     MOCLDY    45  27  49 NW8       29.78F
$$

REGIONAL REPORTS...WYOMING/IDAHO/WASHINGTON
CITY           SKY/WX    TMP DP  RH WIND       PRES   REMARKS
GILLETTE       PTCLDY    43  30  60 SW12      29.86R
SHERIDAN       CLOUDY    39  27  62 SE7       29.87S WCI  34
CODY           CLOUDY    52  28  40 NW7G17    29.96R
YELLOWSTONE LA CLOUDY    30  28  92 CALM      30.14S
SALMON         CLOUDY   N/A N/A N/A CALM      30.15R
MULLAN PASS    CLEAR     30  27  89 VRB5G18   30.05S WCI  25
SAND POINT     FOG      N/A N/A N/A CALM      30.12R VSB 1/2
SPOKANE        FOG       34  34 100 SW9       30.14R VSB 1    WCI  27
$$

REGIONAL REPORTS...ALBERTA
CITY           SKY/WX    TMP DP  RH WIND       PRES   REMARKS
CALGARY        N/A       34  27  76 N14G20    29.89R WCI  24
LETHBRIDGE     FAIR      43  27  53 W17       29.84R
MEDICINE HAT   CLEAR     32  32 100 W6        29.80R WCI  26
EDMONTON       MOCLDY    32  30  92 S8        29.90F WCI  25
WATERTON GATE  N/A       45  21  38 SW10G17    N/A
CARDSTON       N/A       39  23  53 W8         N/A   WCI  33
MILK RIVER     N/A       39  27  62 W17G23     N/A   WCI  30
$$

REGIONAL REPORTS...SASKATCHEWAN
CITY           SKY/WX    TMP DP  RH WIND       PRES   REMARKS
SWIFT CURRENT  CLOUDY    32  30  92 W8        29.71R WCI  25
REGINA         MOCLDY    28  27  96 E15       29.77F WCI  16
VAL MARIE      N/A       37  32  82 S1         N/A
ASSINIBOIA     N/A       28  27  96 E1         N/A
CORONACH       N/A       32  30  92 SE3        N/A

$$



USA.gov is the U.S. government's official web portal to all federal, state and local government web resources and services.